TIROS 2 DEB *, 5922

Orbit data source: Space-Track

TIROS 2 DEB *, 5922 is space debris in LEO originally from a launch on Wed, 23 Nov 1960 UTC launched from the Air Force Eastern Test Range (AFETR). Debris objects in space refer to the collection of defunct objects orbiting the Earth. Examples of debris include non-operational satellites, rocket bodies, and fragments generated from explosions, collisions, or faulty payload assembly.

Loading next visibility...
Identifier
5922, 1960-016E
Orbit
LEO
Country
Flag of USUS
Related business
Manufacturer
Unknown
Mission
Spacecraft
Bus & Motor
Unknown
Mass
Unknown
Launch date (UTC)
1960-11-23 (66 years ago)
Launch vehicle
Unknown
Launch site
Air Force Eastern Test Range (AFETR)
Object type
Payload
Rocket body
Debris
Shape & HBR
Unknown shape, 0.070 m
Radar Cross Section
Medium (>0.1 m² and <1 m²)

Expand to show TLE details & history
Last TLE update: 10 hours ago

TLE from 10 hours ago
0 TIROS 2 DEB *
1 05922U 60016E   26266.93132862 -.00000073  00000-0  64748-4 0  9991
2 05922  47.0298 110.4863 0040456  30.9671 104.0983 13.70076944764988
Epoch: 2026-09-23T22:21Z
TLE epoch observation values (Epoch: 2026-09-23T22:21:06.792Z)
Latitude
30.94749°
Longitude
-81.32451°
Altitude
1,007.901 km
Speed
7.348 km/s
True Right ascension
17h 06m 54s
True Declination
30° 48' 04"
Sunlit
Object was in daylight at epoch
Visualization orbit readout
Latitude
Unknown
Longitude
Unknown
Altitude
Unknown
Speed
Unknown
Apparent Right ascension
Unknown
Apparent Declination
Unknown
Sunlit
N/A
Visualization observer readout
Local Sidereal Time
01:24:04
Azimuth
Unknown
Elevation
Unknown
Doppler factor
Unknown
Orbital elements
Apogee altitude
1,030.326 km
Perigee altitude
970.624 km
Semi-major axis
7,378.612 km
Eccentricity
0.00405
Inclination
47.0298°
RAAN
110.4863°
Arg. of periapsis
30.9671°
True anomaly
104.54737°
Mean anomaly
104.0983°
Eccentric anomaly
104.32289°
Mean motion
3.42437 °/min
Orbital period
105.13 mins
BSTAR
0.000064748
Loading maneuver chart data...
Computing Atmospheric mass density...
Loading historical data...
Loading historical data...
Loading historical data...
Loading historical data...
Loading historical data...
Loading historical data...
Loading historical data...
Other satellites on launch #16 in the year 1960 (1960-11-23 UTC)

Documentation

Showing up to 5 results
|